Volver al catálogo

STARLINK-11661

ActivoComunicacionesVLEO
NORAD 63676·PAYLOAD·🇺🇸 United States

Lanzado Apr 28, 2025 desde Cape Canaveral Space Force Station

Loading…

Próximos Pases (próximas 24 horas)

TLE

ActualizadoSource: CelesTrak SupGP

Época: Sep 15, 2026, 02:57 UTC

1 63676C 25085N   26258.12340278 -.00064629  00000+0 -50196-3 0  2588
2 63676  43.0005 216.2868 0001620 261.2853 256.2661 15.70871093    11

Sigue STARLINK-11661 en tiempo real con AllMySat

Download on the App Store